Location: North Evanston
(42.0634°N, 87.6976°W)
Time: 19:43:04
(UTC+00:00)

Injun/Solrad 3 - Pass Details

Date: 10 May 2026
Orbit: 867 x 989 km, 66.8° (Epoch: 6 June)

Event Time Altitude Azimuth Distance (km) Brightness Sun altitude
Rises 04:36:11 0° 336° (NNW) 3,655 12.3 -28.1°
Reaches altitude 10° 04:42:19 10° 20° (NNE) 2,735 11.0 -28.5°
Maximum altitude 04:42:47 10° 25° (NNE) 2,731 10.9 -28.5°
Drops below altitude 10° 04:43:15 10° 29° (NNE) 2,738 10.8 -28.5°
Sets 04:49:26 0° 73° (ENE) 3,699 11.1 -28.8°
